GFSFLT1_250_spd_126.txt.gz
Wind_Speed
79 81 80 80 81 82 82 82 84 86 87 87 87 85 83 83 79 73 68 68 70 62 59 65 63 69 64 52 50 40 33 37
81 82 83 85 88 90 92 93 92 93 95 94 96 95 92 92 89 84 74 71 76 78 74 75 70 72 63 59 54 57 44 44
85 88 90 93 95 96 99 100 100 101 102 102 102 101 99 98 99 97 93 85 80 82 80 85 83 75 68 58 50 53 58 53
94 97 99 103 105 104 104 104 104 104 105 105 108 110 108 107 105 103 98 94 91 88 83 86 82 89 77 67 58 55 56 57
104 105 106 108 110 109 108 105 101 102 104 104 107 106 106 110 108 106 98 96 95 95 92 92 87 86 90 81 72 67 60 58
111 112 111 112 108 109 107 106 102 98 98 99 100 100 101 101 101 101 102 98 97 100 99 95 92 94 90 92 85 72 69 67
115 111 108 107 105 100 101 96 89 83 82 81 80 83 84 86 89 92 96 100 97 98 98 97 95 92 99 92 94 86 84 78
109 108 105 94 90 91 87 81 76 72 69 68 67 66 70 74 78 85 87 91 95 95 96 98 96 94 100 99 97 100 100 94
100 93 86 81 75 73 72 69 66 62 57 57 58 59 62 66 70 76 83 86 89 91 95 98 99 94 98 104 99 106 110 109
83 81 77 70 64 62 59 58 61 58 54 50 51 53 56 60 64 69 74 80 83 87 90 88 87 85 89 103 103 100 107 110
78 72 68 62 58 59 56 55 58 55 54 46 48 46 52 54 58 65 70 77 79 77 78 78 81 82 87 92 105 108 104 105
65 63 62 57 53 53 50 48 49 41 38 39 40 40 39 43 53 60 64 71 72 71 72 71 74 80 84 88 95 104 111 110
56 57 56 53 48 45 39 39 41 37 36 37 40 42 42 44 49 52 56 61 64 66 69 71 70 73 79 84 92 99 104 112
48 49 48 47 43 39 37 37 36 35 34 33 37 46 49 44 40 43 47 51 55 56 61 66 70 71 73 77 83 88 96 105
43 41 41 41 39 38 36 38 37 37 37 37 39 41 41 38 38 43 44 46 51 53 54 61 67 69 71 72 73 76 79 85
43 42 39 39 38 40 39 40 43 38 42 41 39 41 37 37 38 38 40 44 48 50 48 50 55 61 63 64 64 66 69 73
43 42 40 39 40 38 37 37 38 37 41 40 40 37 38 37 38 42 45 45 39 37 38 40 42 47 52 56 57 58 59 62
45 46 45 43 40 41 40 39 38 37 37 38 38 39 39 39 39 40 41 37 35 34 34 34 35 35 36 40 46 50 55 59
46 47 46 46 46 46 45 42 42 42 43 43 42 39 36 35 36 40 35 30 29 27 28 30 31 32 32 34 37 41 43 46

GFSFLT1_250_spd_132.txt.gz
Wind_Speed
68 69 71 75 75 77 80 82 83 85 85 88 89 90 88 89 89 89 86 84 80 77 72 69 64 61 60 61 68 62 55 54
74 76 75 76 78 80 81 84 86 86 89 93 95 96 96 94 93 93 93 91 88 85 81 78 75 72 68 70 74 64 62 65
77 79 79 79 81 82 84 86 88 90 92 95 98 99 98 96 95 95 95 95 93 90 90 90 87 84 81 77 81 79 79 76
73 75 77 79 81 84 86 88 89 91 93 96 97 98 101 101 104 104 105 106 106 104 100 99 98 96 93 89 84 85 84 91
78 80 82 83 85 87 89 91 93 96 99 102 105 107 109 109 111 113 114 113 112 112 108 106 107 107 103 97 91 88 90 90
86 88 89 91 90 91 94 96 98 100 104 107 110 110 110 111 113 116 116 116 116 115 111 110 106 105 104 101 97 92 92 94
87 88 90 90 92 93 96 100 103 107 108 108 107 106 106 107 106 107 108 108 104 104 103 103 101 103 100 100 97 97 96 99
94 95 96 97 99 103 103 105 106 106 104 101 97 94 96 94 91 88 87 86 84 84 86 89 94 95 100 101 99 99 100 99
96 98 101 103 105 106 108 107 104 98 93 89 86 83 80 78 76 72 69 69 69 71 71 74 79 84 90 92 93 97 101 102
102 104 106 108 109 109 105 100 90 85 80 78 76 70 67 61 60 58 54 55 57 59 60 65 70 73 75 80 84 87 93 101
106 107 109 109 106 101 92 83 79 76 72 66 61 58 56 54 52 48 49 48 49 49 50 57 60 64 69 73 77 78 83 90
109 109 107 99 89 81 75 73 75 69 62 58 55 55 51 47 44 44 43 44 45 47 48 48 53 57 62 63 65 68 72 77
100 96 87 77 73 71 69 72 67 61 57 54 51 51 47 43 39 41 40 41 42 44 46 48 50 52 54 60 61 58 63 70
80 77 69 66 67 67 68 63 59 56 49 47 46 46 49 44 41 41 40 40 43 47 49 50 52 53 53 53 53 54 56 63
70 66 63 65 66 64 61 58 55 49 41 36 39 41 46 47 45 45 45 44 45 49 50 51 51 50 51 53 54 49 47 52
64 63 64 63 60 57 56 54 50 45 41 32 31 35 43 45 46 46 44 46 46 45 44 46 49 51 48 46 47 46 44 44
63 64 61 57 54 53 52 50 46 43 40 38 33 32 34 34 34 36 40 41 41 40 41 42 39 38 39 39 38 37 36 38
62 58 56 54 52 51 50 48 47 44 41 38 38 37 36 33 32 33 34 35 35 33 34 32 28 27 28 26 23 23 25 29
56 55 54 52 52 51 50 49 49 49 48 46 43 41 40 36 36 34 34 33 33 33 32 24 22 22 20 19 18 17 18 20

GFSFLT1_250_spd_135.txt.gz
Wind_Speed
67 68 69 69 69 70 73 74 77 79 82 81 80 80 79 83 84 87 88 90 89 90 88 82 73 67 67 66 69 73 73 69
66 66 68 69 71 71 74 77 78 80 82 85 87 87 88 87 86 91 92 93 94 96 97 96 85 74 72 75 75 75 73 73
69 68 68 71 70 68 71 78 83 86 88 89 90 91 90 89 90 91 93 98 101 102 102 100 100 96 82 77 79 80 78 79
73 72 70 72 72 72 72 74 76 79 81 84 86 88 90 92 94 95 97 98 99 101 102 101 101 101 100 93 86 83 83 84
78 77 75 74 77 80 81 83 84 86 88 90 92 95 97 99 101 102 105 106 108 108 109 109 109 107 105 105 103 96 91 90
83 84 84 83 82 83 85 86 90 93 93 93 94 94 97 99 102 103 103 106 110 112 112 111 110 109 107 105 105 106 103 99
91 90 88 87 88 89 90 92 93 94 95 97 99 101 102 105 109 112 112 113 109 106 105 104 103 104 104 104 102 99 100 100
94 93 92 93 94 94 95 98 99 99 99 99 102 106 109 111 111 107 103 99 95 93 92 95 97 97 97 97 96 97 97 97
98 99 100 102 103 103 105 105 103 103 101 102 102 104 103 100 93 89 88 86 85 84 85 85 85 85 83 82 81 84 86 90
105 105 107 109 108 107 108 108 105 102 101 101 100 94 88 84 82 81 79 76 74 74 72 71 72 74 72 73 74 75 77 80
106 105 104 100 98 101 102 100 95 93 94 89 81 77 76 77 73 66 64 64 63 62 61 60 59 60 62 64 65 67 69 74
90 88 90 91 90 90 91 87 85 81 74 72 71 70 70 68 60 57 54 56 58 55 57 55 55 54 57 58 61 64 67 69
82 84 84 84 83 81 78 73 70 68 67 65 66 66 61 61 54 50 50 51 53 52 53 52 52 53 54 57 60 62 62 64
78 78 79 77 74 70 66 63 62 64 65 64 62 58 55 55 52 46 44 47 49 47 50 49 49 49 50 53 54 56 57 60
74 73 73 71 69 65 62 61 63 64 64 62 58 56 50 45 46 42 40 40 46 47 46 45 45 48 52 53 52 52 53 49
71 69 68 68 67 66 64 65 64 63 62 59 55 51 45 40 38 38 39 41 44 48 45 43 44 45 47 50 49 48 47 47
70 69 69 68 67 65 66 65 61 58 56 56 52 47 43 40 37 33 34 35 36 38 38 40 41 45 46 44 43 40 37 36
70 70 68 68 66 64 64 60 56 53 53 52 51 48 43 39 37 34 32 32 32 30 30 33 36 36 32 31 33 34 31 29
65 65 64 62 61 60 58 55 53 53 52 50 49 50 49 47 43 38 34 34 33 31 29 29 31 31 29 31 31 25 20 21

GFSFLT1_250_spd_138.txt.gz
Wind_Speed
77 78 79 71 66 67 68 71 70 71 74 74 74 74 74 78 82 84 83 81 78 75 76 77 78 78 75 71 66 69 74 75
79 79 78 76 70 70 70 71 71 71 72 75 78 78 80 80 82 85 88 89 88 84 82 83 82 81 79 81 73 77 83 84
83 80 73 73 72 71 72 74 76 76 75 75 75 75 75 80 83 86 92 91 91 90 90 90 90 89 89 87 87 79 86 92
88 90 84 81 78 77 79 79 79 79 79 78 79 80 81 80 79 79 85 87 91 93 91 88 90 91 92 94 95 96 89 97
86 84 87 86 84 83 83 84 84 83 83 83 83 84 88 91 91 91 92 92 93 92 93 97 100 101 101 100 100 100 100 95
93 92 88 90 91 90 89 88 88 89 91 91 90 90 90 89 91 94 96 97 100 101 100 101 100 101 99 100 102 103 104 105
93 95 93 93 95 95 94 92 93 94 94 95 94 94 92 93 95 97 99 101 104 106 106 104 104 105 107 106 103 103 103 103
100 100 99 101 102 100 97 99 101 99 98 99 99 100 101 102 102 105 106 106 105 103 105 105 105 105 104 100 98 95 95 97
106 103 103 103 102 101 102 104 102 97 96 96 97 99 99 98 95 97 98 97 94 94 92 90 91 88 85 86 85 85 84 85
109 104 105 105 105 105 103 96 92 88 88 88 84 82 82 82 82 83 81 82 82 78 77 77 76 77 77 77 77 78 78 77
106 106 109 106 102 96 88 83 81 82 81 79 78 73 72 71 70 71 70 71 73 70 69 67 66 65 65 66 67 66 67 67
110 98 98 93 86 81 80 79 79 78 76 74 69 65 64 62 62 64 65 66 68 63 59 55 57 57 57 57 58 60 61 62
103 95 89 83 80 78 80 81 79 76 74 69 62 61 60 58 60 61 62 63 61 54 52 48 49 50 51 54 55 58 59 60
86 94 82 78 76 78 81 80 78 75 72 64 62 60 59 59 60 59 56 55 57 52 46 43 42 42 43 49 55 56 58 61
79 89 85 75 72 75 75 75 75 73 69 64 62 62 62 61 57 54 50 51 52 51 42 37 37 40 40 42 44 47 47 50
72 83 85 80 70 68 69 70 72 72 69 65 65 62 61 57 52 49 48 48 47 46 42 38 37 39 43 44 40 39 42 43
78 80 74 72 68 66 65 65 66 68 66 65 64 61 58 53 50 48 48 45 46 42 39 35 34 35 38 41 38 39 42 45
70 76 73 69 65 64 62 61 61 61 61 61 59 56 53 51 50 49 47 45 43 41 37 32 30 30 32 34 37 36 35 36
62 63 63 61 57 56 55 55 56 57 57 56 53 51 52 52 51 49 47 46 44 41 38 34 31 29 28 31 32 32 31 31

GFSFLT1_250_spd_141.txt.gz
Wind_Speed
64 69 69 69 71 72 77 77 76 70 70 69 68 70 69 71 72 74 74 75 75 74 74 76 77 76 79 78 77 76 76 77
74 81 76 75 77 81 82 80 77 76 75 73 72 74 74 73 74 79 76 78 77 77 79 81 82 85 83 78 79 85 82 84
72 76 77 76 78 79 80 81 79 78 79 78 79 78 81 83 81 81 81 81 79 77 78 79 83 85 86 88 87 84 84 85
78 78 79 81 81 82 82 80 80 79 80 80 81 81 82 85 86 85 85 86 85 84 82 81 81 82 83 88 89 93 96 99
83 83 86 89 90 90 88 88 89 88 87 87 88 89 89 89 89 90 90 90 89 91 90 91 93 92 91 89 89 92 96 101
81 86 89 95 95 94 95 96 96 95 94 94 94 95 95 96 96 92 91 91 92 92 92 93 94 97 101 102 99 97 97 99
90 93 94 98 101 99 98 99 99 99 98 97 97 96 96 96 95 96 98 98 95 96 96 96 98 98 98 97 99 101 101 100
100 99 97 100 102 104 103 105 106 105 100 96 96 97 96 97 96 92 89 87 87 92 97 101 103 104 106 106 106 105 102 101
104 108 108 111 113 110 107 111 106 98 94 94 93 90 88 86 81 77 74 74 77 82 84 88 91 93 95 94 93 91 92 91
109 113 109 115 113 113 105 94 89 83 81 83 81 78 76 74 70 65 64 70 75 77 75 74 74 75 76 76 76 79 79 81
117 119 116 118 123 108 95 87 79 76 74 73 71 71 71 70 67 65 65 65 65 63 63 64 64 63 64 66 68 70 71 72
120 121 123 121 105 99 91 82 80 71 69 69 67 68 70 70 67 64 63 60 60 59 59 58 59 61 60 61 62 63 64 65
119 113 100 93 90 91 90 85 77 69 60 61 62 65 69 68 64 63 60 58 60 58 58 59 59 57 55 54 55 56 56 57
104 93 88 82 82 86 90 85 80 71 67 62 59 64 66 66 62 60 59 58 58 58 58 57 54 50 47 46 48 50 49 47
89 83 80 76 76 87 85 81 79 73 65 61 61 63 65 63 60 60 59 58 58 57 53 50 48 47 42 42 43 43 43 42
82 82 80 80 81 80 80 71 68 66 60 62 62 62 60 59 58 59 59 56 55 52 48 45 44 44 43 39 39 40 43 44
77 75 73 76 78 78 74 66 64 59 56 57 59 57 55 55 55 55 55 53 50 47 45 44 43 43 41 39 36 36 39 43
70 70 70 73 70 65 63 63 61 57 57 56 54 52 52 52 52 51 51 49 47 45 44 44 44 41 40 38 35 33 34 36
64 60 66 62 56 54 54 55 54 54 54 51 49 49 49 48 48 48 47 48 49 49 46 45 43 41 40 38 35 32 32 34

GFSFLT1_250_spd_147.txt.gz
Wind_Speed
63 69 70 71 74 75 76 80 81 80 78 79 78 78 79 79 79 78 77 78 80 80 77 75 75 74 73 72 69 69 69 71
66 70 74 77 79 81 85 87 86 86 85 79 75 75 74 74 76 79 81 83 83 83 85 83 81 80 78 77 79 77 75 74
72 76 81 84 86 88 90 91 91 90 84 79 76 74 76 82 86 88 86 86 86 89 90 90 88 88 87 87 86 84 80 78
82 86 88 91 93 95 95 97 94 90 80 79 82 89 91 100 99 97 94 95 97 97 96 96 93 91 94 90 91 90 87 84
85 89 93 96 95 95 96 98 98 92 87 88 91 100 105 114 111 100 94 94 96 98 98 99 100 97 96 97 97 95 92 93
91 91 90 94 98 100 95 93 86 85 86 98 103 113 118 121 108 101 97 96 97 95 97 100 100 99 99 96 96 98 97 97
99 98 101 99 89 86 82 91 86 94 100 112 118 124 125 114 100 96 96 94 90 88 88 88 86 86 86 88 91 94 93 96
95 100 92 90 91 91 97 96 101 114 117 126 131 129 107 92 90 89 87 84 80 76 76 76 75 77 80 81 84 87 87 90
94 86 90 87 89 100 105 108 112 120 124 132 128 100 91 86 84 81 76 73 69 69 71 71 71 73 74 76 79 81 84 84
92 88 97 96 99 108 117 122 123 128 137 121 99 93 87 85 77 72 70 66 64 65 63 65 68 69 72 74 75 76 75 77
97 97 98 107 110 119 121 121 126 133 119 97 92 87 86 83 72 69 70 66 62 59 60 64 69 72 69 72 70 67 67 69
103 106 111 111 121 127 128 129 130 116 99 91 88 83 76 71 71 67 65 63 59 60 61 64 69 70 69 69 63 64 65 66
108 112 119 124 132 131 134 128 109 98 91 85 81 82 77 75 72 72 67 64 59 59 61 63 66 69 67 60 58 59 61 62
125 128 130 131 135 139 135 110 98 88 84 83 80 81 75 75 72 67 62 60 59 58 59 61 61 65 64 59 55 55 56 57
133 134 133 133 130 120 104 96 89 83 81 78 75 78 72 71 68 62 60 59 58 58 56 57 57 58 58 56 53 51 54 53
142 137 130 122 111 101 94 88 84 79 78 73 69 70 69 67 64 61 58 56 54 53 53 55 56 53 52 52 48 49 50 51
131 122 105 99 96 91 87 81 78 74 71 70 67 63 61 60 60 59 55 53 50 50 51 50 50 49 48 48 46 49 49 49
109 103 94 89 86 82 79 74 71 71 66 64 61 57 55 55 54 52 49 48 47 47 48 48 47 48 48 48 48 49 49 47
88 84 82 78 76 74 71 68 66 63 62 56 53 50 48 47 46 46 45 45 45 45 45 46 47 47 48 48 47 48 47 46

GFSFLT1_250_spd_150.txt.gz
Wind_Speed
55 59 63 66 70 71 73 75 77 79 80 83 85 84 84 83 83 82 79 69 66 70 71 73 82 85 83 83 82 80 77 76
61 65 68 71 73 75 77 79 82 83 84 83 84 82 84 87 88 85 81 77 77 74 83 87 89 93 102 90 86 84 84 83
67 71 74 76 76 79 82 82 81 84 84 83 85 87 89 89 85 80 78 81 85 91 100 106 104 105 91 90 91 93 90 89
72 75 77 79 82 85 87 86 83 87 88 90 91 88 79 78 76 84 90 94 105 105 106 116 104 93 92 88 91 97 97 97
75 76 80 84 87 90 92 92 95 97 89 89 89 84 86 81 84 94 104 109 111 109 115 99 91 83 78 82 88 95 97 100
80 83 87 91 93 94 96 97 94 93 83 75 75 79 84 89 93 107 107 112 112 119 98 83 79 78 77 83 87 90 93 96
86 89 93 97 98 99 96 93 95 86 81 84 86 96 100 103 108 120 115 118 112 93 86 79 78 77 76 80 82 84 87 88
89 93 96 97 99 103 96 95 93 90 87 90 95 102 109 116 123 124 125 104 86 81 76 74 76 76 73 75 77 76 79 79
94 97 100 102 103 98 101 98 98 94 94 103 106 111 120 125 125 128 108 93 81 76 73 71 70 70 70 73 73 77 79 78
101 105 102 101 99 104 99 99 100 104 107 116 115 127 133 135 119 100 90 84 77 72 73 70 67 66 66 69 71 77 77 77
106 106 105 103 102 105 102 110 104 110 116 123 126 130 138 110 93 87 82 76 73 70 71 69 67 67 67 69 73 73 77 78
100 103 104 102 102 105 114 116 122 119 124 128 133 134 101 90 85 81 79 72 69 67 65 64 64 64 65 66 71 74 76 73
98 100 105 109 122 118 129 127 129 127 128 132 114 94 88 85 81 76 74 72 72 69 68 66 65 64 65 66 70 69 69 66
106 108 114 124 129 130 128 133 132 128 124 104 91 82 80 79 75 72 70 69 68 65 65 64 62 60 62 64 65 63 60 58
130 132 130 129 122 124 125 122 115 105 96 87 82 82 77 72 71 71 69 67 65 62 60 59 58 56 56 56 55 55 53 52
131 129 127 121 118 111 110 109 100 90 86 82 79 77 71 70 69 67 65 63 61 59 58 55 51 51 51 51 50 50 49 49
123 120 117 116 112 105 95 89 85 85 82 78 74 72 70 66 64 62 60 57 55 53 53 52 50 48 47 46 46 48 49 47
114 111 108 105 96 90 86 82 81 80 76 73 69 67 64 60 56 54 52 51 51 50 49 47 47 46 44 44 45 48 48 46
98 92 88 87 84 81 79 78 79 75 72 67 64 61 57 52 50 48 47 46 46 46 46 45 43 43 44 44 43 42 42 41